CST,Max TemperatureF,Mean TemperatureF,Min TemperatureF,Max Dew PointF,MeanDew PointF,Min DewpointF,Max Humidity, Mean Humidity, Min Humidity, Max Sea Level PressureIn, Mean Sea Level PressureIn, Min Sea Level PressureIn, Max VisibilityMiles, Mean VisibilityMiles, Min VisibilityMiles, Max Wind SpeedMPH, Mean Wind SpeedMPH, Max Gust SpeedMPH,PrecipitationIn, CloudCover, Events, WindDirDegrees
2011-1-1,18,10,3,4,0,-7,73,64,52,30.24,30.03,29.80,10,10,8,31,18,39,0.00,2,,274
2011-1-2,28,17,6,14,8,0,80,67,53,30.21,30.12,30.06,10,10,10,14,8,,0.00,0,,210
2011-1-3,37,26,15,26,16,9,88,74,62,30.19,30.08,30.01,10,10,10,21,5,28,0.00,2,,237
2011-1-4,32,20,7,22,12,2,88,76,59,30.19,30.10,29.97,10,10,10,9,6,,0.00,0,,211
2011-1-5,39,26,12,25,19,10,89,78,53,29.98,29.92,29.86,10,10,9,16,4,,0.00,1,,265
2011-1-6,39,31,23,30,27,19,92,79,65,29.94,29.80,29.64,10,10,6,18,7,,0.00,4,,290
2011-1-7,35,26,17,30,22,8,85,72,63,29.91,29.74,29.62,10,10,3,34,19,47,0.00,7,Snow,321
2011-1-8,19,16,12,11,6,3,81,65,52,30.14,30.06,29.92,10,10,10,16,12,,0.00,6,,37
2011-1-9,21,18,15,19,15,7,93,83,65,30.24,30.16,30.11,10,3,0,17,11,,0.20,8,Fog-Snow,123
2011-1-10,23,16,9,19,15,3,93,86,76,30.33,30.23,30.17,9,2,0,24,8,29,0.31,8,Fog-Snow,7
2011-1-11,8,4,0,3,-3,-6,80,72,67,30.66,30.48,30.32,10,10,5,23,19,30,0.00,6,Snow,322
2011-1-12,9,-1,-11,2,-6,-16,92,77,67,30.80,30.69,30.59,10,9,4,15,8,,0.00,5,Snow,316
2011-1-13,19,5,-9,12,3,-14,87,77,71,30.60,30.35,30.23,10,10,4,21,10,30,0.00,1,,175
2011-1-14,25,16,6,18,10,2,84,78,72,30.31,30.23,30.16,10,8,6,21,6,,0.00,3,,36
2011-1-15,23,18,12,16,10,6,81,75,68,30.38,30.32,30.21,10,8,2,23,15,29,0.00,7,Snow,337
2011-1-16,23,15,9,17,9,4,80,76,71,30.38,30.15,29.82,10,10,5,20,9,,0.00,8,Snow,139
2011-1-17,36,28,19,31,23,12,85,82,74,29.93,29.66,29.50,10,6,3,24,16,26,0.01,8,Rain,176
2011-1-18,17,12,7,10,4,0,80,75,67,30.24,30.13,29.95,10,7,1,21,15,25,0.00,7,Snow,351
2011-1-19,10,2,-5,2,-3,-10,80,74,69,30.37,30.26,30.20,10,7,1,14,9,,0.00,5,Snow,346
2011-1-20,17,8,-2,8,0,-7,84,72,61,30.35,30.31,30.20,10,10,10,23,5,,0.00,2,,312
2011-1-21,17,11,5,12,4,-4,85,78,63,30.18,30.01,29.90,10,6,1,15,7,,0.04,8,Snow,132
2011-1-22,23,14,6,18,10,0,92,83,72,30.23,29.96,29.83,8,3,0,22,8,,0.03,7,Fog-Snow,49
2011-1-23,6,-2,-9,1,-6,-16,85,75,65,30.33,30.19,29.92,10,8,1,21,14,24,0.00,4,Snow,16
2011-1-24,37,20,3,28,15,-1,88,78,70,30.20,30.06,29.91,10,10,7,18,11,20,0.00,3,,262
2011-1-25,28,17,6,23,14,5,100,86,77,30.19,30.08,30.00,10,6,0,17,7,,0.00,4,Fog,178
2011-1-26,24,19,14,18,15,9,93,87,77,30.26,30.15,30.01,10,4,0,21,13,21,0.00,7,Fog-Snow,339
2011-1-27,37,28,18,30,24,15,88,79,69,29.97,29.90,29.84,10,10,8,17,10,,0.00,1,,312
2011-1-28,42,28,15,31,22,12,100,80,62,29.94,29.85,29.76,10,5,0,18,6,,0.00,1,Fog,202
2011-1-29,33,26,18,27,22,11,92,81,74,30.27,30.06,29.92,10,10,8,18,8,,0.00,5,,352
2011-1-30,18,9,1,14,4,-4,88,78,72,30.42,30.35,30.27,10,9,4,20,13,,0.00,7,Snow,1
2011-1-31,23,14,5,20,9,-1,93,83,72,30.42,30.27,30.18,8,2,1,24,15,26,0.01,8,Rain-Snow,338